"Pseudo-MPEC" for 2011-056B = NORAD 37835

Created 2016 Aug 28 11:55:01 UT using Find_Orb

Astrometry:
2011-056B    tC2016 08 26.26711 00 17 15.93 -18 01 27.5          12.8 R      Y00
2011-056B    tC2016 08 26.26870 00 18 44.89 -18 00 20.6          13.0 R      Y00
2011-056B    tC2016 08 26.27024 00 20 11.21 -17 59 12.9          12.7 R      Y00
2011-056B    tC2016 08 28.25348 23 26 22.27 -17 50 34.7          12.7 R      Y00
2011-056B    tC2016 08 28.25494 23 27 47.21 -17 51 05.2          12.9 R      Y00
2011-056B    tC2016 08 28.25665 23 29 26.28 -17 51 37.3          12.4 R      Y00

Station data:
(Y00) SONEAR Observatory, Oliveira (S20.71513 W44.78496)  Brazil.   Observers
    C. Jacques, E. Pimentel, J. Barros.  Measurer C. Jacques.  0.28-m f/2.2
    astrograph + CCD.

Orbital elements:  2011-056B = NORAD 37835
   Perigee 2016 Aug 28.029024 +/- 0.00278 TT =  0:41:47 (JD 2457628.529024)
Epoch 2016 Aug 28.0 TT = JDT 2457628.5                        Find_Orb
M 339.447043 +/- 1.9                (J2000 equatorial)
n 708.129061551 +/- 0.11            Peri.   91.702454 +/- 0.6
a 26906.79030 +/- 2.78              Node    91.525561 +/- 0.012
e   0.56781788 +/- 0.00152          Incl.   18.668767 +/- 0.007
P 732.06m/0.508d           H 30.2   G  0.15   U 11.3
q 11628.63354 +/- 40.8    Q 42184.94706 +/- 41.4
From 6 observations 2016 Aug. 26-28 (47.7 hr); mean residual 0".338
Residuals in arcseconds: 
160826 Y00 .237- .219-    160826 Y00 .592+ .042-    160828 Y00 .652+ .216+
160826 Y00 .340- .263+    160828 Y00 .221- .079-    160828 Y00 .428- .136-

Ephemerides (geocentric):
Date (UTC) HH   RA              Dec         delta   r     elong  mag " sig PA
---- -- -- --  ------------   ------------  ------ ------ -----  --- ---- ---
2016 08 28 00  07 22 00.282   +06 16 00.49   15479 1.0101  45.9 16?? 262'  73
2016 08 28 01  14 57 13.996   +13 54 46.79   12676 1.0101  66.0 14.3 430' 103
2016 08 28 02  19 12 36.883   -05 32 29.79   21550 1.0102 131.6 12.8 7016 108
2016 08 28 03  20 58 16.465   -13 00 02.79   29689 1.0103 157.9 12.8 2413 103
2016 08 28 04  22 04 57.615   -16 16 31.70   35609 1.0103 171.4 Sha   918  98
2016 08 28 05  22 56 22.189   -17 52 24.52   39535 1.0103 169.2 13.0  309  94
2016 08 28 06  23 40 54.665   -18 34 01.21   41671 1.0103 160.2 13.4   77  89
2016 08 28 07  00 22 54.632   -18 37 19.09   42126 1.0103 150.8 13.8   72  91
2016 08 28 08  01 05 32.981   -18 04 55.75   40924 1.0103 140.9 14.0  274  87
2016 08 28 09  01 52 18.058   -16 48 36.57   38004 1.0102 130.0 14.1  755  83
2016 08 28 10  02 48 43.286   -14 21 56.91   33214 1.0101 116.4 14.2 1769  79
2016 08 28 11  04 07 29.066   -09 28 27.05   26312 1.0101  96.7 14.4 4213  74
2016 08 28 12  06 33 10.371   +02 17 59.41   17307 1.0100  59.0 15?? 207'  72
2016 08 28 13  13 22 12.086   +17 41 53.35   11798 1.0100  42.8 16?? 505'  96
2016 08 28 14  18 41 59.772   -03 03 31.43   19721 1.0101 123.3 12.9 9152 108
2016 08 28 15  20 42 13.350   -12 02 38.67   28275 1.0102 153.6 12.8 3024 104
2016 08 28 16  21 53 45.633   -15 49 44.28   34617 1.0102 169.2 Sha  1176  99
2016 08 28 17  22 47 16.870   -17 39 34.54   38914 1.0102 170.7 12.9  440  95
2016 08 28 18  23 32 45.505   -18 29 31.09   41388 1.0102 162.2 13.4  145  91
2016 08 28 19  00 14 59.328   -18 39 20.47   42168 1.0102 152.9 13.7   99  90
2016 08 28 20  00 57 15.032   -18 13 46.99   41293 1.0102 143.3 13.9  260  88
2016 08 28 21  01 42 51.052   -17 06 55.54   38717 1.0101 132.6 14.1  680  84
2016 08 28 22  02 36 43.015   -14 57 10.81   34310 1.0100 119.7 14.2 1565  79
2016 08 28 23  03 49 19.301   -10 43 07.58   27842 1.0100 101.7 14.3 3612  75
2016 08 29 00  05 54 01.896   -00 58 35.91   19175 1.0099  69.6 15.0 9990  72
2016 08 29 01  11 36 02.986   +18 31 09.08   11676 1.0098  18.3 21?? 516'  88
2016 08 29 02  18 05 09.848   +00 00 50.33   17855 1.0099 113.2 13.0 201' 108
2016 08 29 03  20 24 32.183   -10 54 56.76   26772 1.0100 148.8 12.8 3787 105
2016 08 29 04  21 41 55.004   -15 18 59.65   33546 1.0101 166.6 Sha  1478 100
2016 08 29 05  22 37 53.989   -17 24 44.07   38223 1.0101 171.7 Sha   590  96
2016 08 29 06  23 24 29.338   -18 23 41.44   41042 1.0101 164.2 13.3  224  92
2016 08 29 07  00 07 04.360   -18 40 11.85   42148 1.0101 155.0 13.6  133  90
2016 08 29 08  00 49 04.820   -18 21 15.14   41597 1.0101 145.5 13.9  253  88
2016 08 29 09  01 33 42.597   -17 23 05.47   39362 1.0100 135.1 14.0  618  84
2016 08 29 10  02 25 23.321   -15 28 09.16   35328 1.0099 122.8 14.2 1393  80
2016 08 29 11  03 32 53.993   -11 46 45.26   29284 1.0099 106.3 14.3 3127  76
2016 08 29 12  05 21 47.868   -03 39 00.74   21019 1.0098  78.4 14.7 8136  72
2016 08 29 13  09 55 48.175   +15 55 24.73   12348 1.0097  11.2 25?? 457'  80
2016 08 29 14  17 19 40.117   +03 48 13.62   16005 1.0098 100.9 13.1 268' 108
2016 08 29 15  20 04 48.814   -09 34 19.81   25182 1.0099 143.5 12.8 4757 106